SAS1596 EBBR-EKCH

Flight info

Callsign SAS1596
Flight time 1h 7m
Altitude 38000
Route NIK L191 VICOT N873 SPY DCT DOSUR/N0463F390 P729 TUDLO
Aircraft A20N/M-SDE2E3FGHIRWXY/LB1

Departure

Time 2026-05-06 17:45
Airport Brussels Airport (EBBR)

Arrival

Time 2026-05-06 18:52
Airport Copenhagen Kastrup Airport (EKCH)
Time Latitude Longitude Altitude Speed Heading
2026-05-06 17:16 50.90449 4.48731 119 ft 0 kts 155°
2026-05-06 17:29 50.90461 4.48721 118 ft 3 kts 155°
2026-05-06 17:30 50.90482 4.48707 116 ft 3 kts 155°
2026-05-06 17:30 50.90501 4.48691 115 ft 3 kts 144°
2026-05-06 17:30 50.90517 4.48665 116 ft 3 kts 115°
2026-05-06 17:30 50.90521 4.48638 114 ft 2 kts 68°
2026-05-06 17:31 50.90529 4.48667 114 ft 3 kts 66°
2026-05-06 17:31 50.90538 4.48700 112 ft 6 kts 66°
2026-05-06 17:31 50.90541 4.48712 115 ft 0 kts 66°
2026-05-06 17:34 50.90542 4.48715 115 ft 2 kts 65°
2026-05-06 17:35 50.90568 4.48798 113 ft 16 kts 62°
2026-05-06 17:35 50.90621 4.48970 113 ft 18 kts 66°
2026-05-06 17:35 50.90672 4.49164 111 ft 19 kts 66°
2026-05-06 17:36 50.90710 4.49316 113 ft 0 kts 114°
2026-05-06 17:36 50.90693 4.49319 114 ft 8 kts 181°
2026-05-06 17:36 50.90666 4.49286 117 ft 10 kts 234°
2026-05-06 17:36 50.90592 4.49196 117 ft 14 kts 191°
2026-05-06 17:37 50.90538 4.49218 120 ft 0 kts 155°
2026-05-06 17:37 50.90534 4.49221 121 ft 2 kts 159°
2026-05-06 17:37 50.90517 4.49230 124 ft 7 kts 158°
2026-05-06 17:37 50.90513 4.49234 125 ft 0 kts 156°
2026-05-06 17:39 50.90512 4.49234 126 ft 0 kts 155°
2026-05-06 17:39 50.90459 4.49271 129 ft 17 kts 156°
2026-05-06 17:39 50.90348 4.49351 136 ft 17 kts 154°
2026-05-06 17:39 50.90273 4.49387 140 ft 10 kts 180°
2026-05-06 17:40 50.90190 4.49366 143 ft 16 kts 194°
2026-05-06 17:40 50.90078 4.49319 149 ft 16 kts 195°
2026-05-06 17:40 50.89972 4.49278 153 ft 15 kts 193°
2026-05-06 17:40 50.89878 4.49240 158 ft 13 kts 194°
2026-05-06 17:41 50.89797 4.49208 160 ft 12 kts 193°
2026-05-06 17:41 50.89712 4.49172 159 ft 14 kts 196°
2026-05-06 17:41 50.89624 4.49109 160 ft 14 kts 211°
2026-05-06 17:41 50.89533 4.49052 161 ft 14 kts 194°
2026-05-06 17:42 50.89443 4.49018 162 ft 9 kts 193°
2026-05-06 17:42 50.89410 4.49006 163 ft 0 kts 192°
2026-05-06 17:42 50.89405 4.49005 163 ft 4 kts 187°
2026-05-06 17:42 50.89369 4.49047 164 ft 9 kts 128°
2026-05-06 17:43 50.89345 4.49083 164 ft 0 kts 149°
2026-05-06 17:43 50.89315 4.49086 165 ft 12 kts 185°
2026-05-06 17:43 50.89223 4.49050 167 ft 15 kts 195°
2026-05-06 17:44 50.89151 4.49033 169 ft 4 kts 141°
2026-05-06 17:44 50.89145 4.49087 169 ft 15 kts 68°
2026-05-06 17:44 50.89246 4.49518 169 ft 75 kts 70°
2026-05-06 17:44 50.89493 4.50606 165 ft 132 kts 71°
2026-05-06 17:45 50.89847 4.52123 486 ft 148 kts 66°
2026-05-06 17:45 50.90266 4.53587 1262 ft 143 kts 61°
2026-05-06 17:45 50.90758 4.55008 1816 ft 154 kts 59°
2026-05-06 17:45 50.91306 4.56575 2281 ft 172 kts 59°
2026-05-06 17:46 50.92007 4.58232 2724 ft 192 kts 43°
2026-05-06 17:46 50.93221 4.59345 3213 ft 215 kts 12°
2026-05-06 17:46 50.94763 4.59222 3801 ft 235 kts 340°
2026-05-06 17:46 50.96175 4.57744 4496 ft 252 kts 315°
2026-05-06 17:47 50.97303 4.55577 5479 ft 257 kts 307°
2026-05-06 17:47 50.98356 4.53257 6483 ft 260 kts 307°
2026-05-06 17:47 50.99451 4.50914 7399 ft 265 kts 308°
2026-05-06 17:47 51.00598 4.48597 8344 ft 269 kts 309°
2026-05-06 17:48 51.01799 4.46268 9249 ft 275 kts 310°
2026-05-06 17:48 51.03021 4.43945 10134 ft 280 kts 310°
2026-05-06 17:48 51.04324 4.41489 10611 ft 301 kts 310°
2026-05-06 17:48 51.05729 4.38842 10955 ft 323 kts 310°
2026-05-06 17:49 51.07201 4.36062 11617 ft 332 kts 310°
2026-05-06 17:49 51.08696 4.33234 12490 ft 335 kts 310°
2026-05-06 17:49 51.10205 4.30375 13328 ft 340 kts 309°
2026-05-06 17:49 51.11736 4.27470 14109 ft 344 kts 309°
2026-05-06 17:50 51.13285 4.24526 14828 ft 348 kts 309°
2026-05-06 17:50 51.14851 4.21544 15581 ft 352 kts 309°
2026-05-06 17:50 51.16484 4.18680 16292 ft 356 kts 316°
2026-05-06 17:50 51.18409 4.16126 17006 ft 361 kts 323°
2026-05-06 17:51 51.20451 4.13764 17703 ft 365 kts 323°
2026-05-06 17:51 51.22513 4.11346 18386 ft 369 kts 323°
2026-05-06 17:51 51.24584 4.08904 18999 ft 372 kts 323°
2026-05-06 17:51 51.26834 4.06820 19604 ft 377 kts 336°
2026-05-06 17:52 51.29360 4.05625 20183 ft 383 kts 349°
2026-05-06 17:52 51.32040 4.05359 20746 ft 389 kts 358°
2026-05-06 17:52 51.34761 4.05320 21327 ft 393 kts 358°
2026-05-06 17:52 51.37519 4.05274 21901 ft 397 kts 358°
2026-05-06 17:53 51.40307 4.05223 22478 ft 401 kts 358°
2026-05-06 17:53 51.43117 4.05168 23035 ft 405 kts 358°
2026-05-06 17:53 51.45959 4.05247 23567 ft 411 kts
2026-05-06 17:53 51.48789 4.06028 24043 ft 416 kts 13°
2026-05-06 17:54 51.51534 4.07550 24516 ft 421 kts 22°
2026-05-06 17:54 51.54206 4.09544 24972 ft 424 kts 24°
2026-05-06 17:54 51.56855 4.11508 25447 ft 427 kts 23°
2026-05-06 17:54 51.59539 4.13492 25895 ft 430 kts 23°
2026-05-06 17:55 51.61851 4.15203 26273 ft 432 kts 24°
2026-05-06 17:55 51.64602 4.17245 26721 ft 435 kts 24°
2026-05-06 17:55 51.67360 4.19297 27140 ft 438 kts 24°
2026-05-06 17:55 51.70140 4.21369 27555 ft 441 kts 24°
2026-05-06 17:56 51.72935 4.23457 27959 ft 444 kts 24°
2026-05-06 17:56 51.75747 4.25560 28345 ft 447 kts 24°
2026-05-06 17:56 51.78549 4.27662 28722 ft 449 kts 24°
2026-05-06 17:56 51.81399 4.29802 29098 ft 452 kts 24°
2026-05-06 17:57 51.84257 4.31951 29460 ft 454 kts 24°
2026-05-06 17:57 51.87135 4.34117 29821 ft 457 kts 24°
2026-05-06 17:57 51.90026 4.36298 30149 ft 459 kts 24°
2026-05-06 17:57 51.92939 4.38496 30465 ft 461 kts 24°
2026-05-06 17:58 51.95865 4.40709 30785 ft 463 kts 24°
2026-05-06 17:58 51.98796 4.42929 31136 ft 464 kts 24°
2026-05-06 17:58 52.01594 4.45052 31520 ft 464 kts 24°
2026-05-06 17:58 52.04517 4.47272 31840 ft 463 kts 24°
2026-05-06 17:59 52.10356 4.51717 31913 ft 461 kts 24°
2026-05-06 17:59 52.16184 4.56166 31916 ft 466 kts 24°
2026-05-06 18:00 52.22128 4.60715 31912 ft 479 kts 24°
2026-05-06 18:00 52.28190 4.65372 32002 ft 481 kts 24°
2026-05-06 18:01 52.31215 4.67700 32299 ft 481 kts 24°
2026-05-06 18:01 52.34237 4.70030 32765 ft 476 kts 24°
2026-05-06 18:01 52.37206 4.72324 33248 ft 472 kts 24°
2026-05-06 18:01 52.40171 4.74616 33626 ft 471 kts 24°
2026-05-06 18:02 52.43129 4.76906 33976 ft 470 kts 24°
2026-05-06 18:02 52.46089 4.79201 34224 ft 470 kts 24°
2026-05-06 18:02 52.49054 4.81503 34437 ft 471 kts 24°
2026-05-06 18:02 52.51949 4.84034 34670 ft 473 kts 31°
2026-05-06 18:03 52.54649 4.87134 34891 ft 475 kts 37°
2026-05-06 18:03 52.56345 4.89516 35028 ft 476 kts 42°
2026-05-06 18:03 52.58669 4.93407 35233 ft 477 kts 46°
2026-05-06 18:03 52.60957 4.97360 35435 ft 478 kts 45°
2026-05-06 18:04 52.63256 5.01304 35649 ft 478 kts 45°
2026-05-06 18:04 52.65562 5.05262 35837 ft 479 kts 45°
2026-05-06 18:04 52.67848 5.09199 36059 ft 479 kts 45°
2026-05-06 18:04 52.70165 5.13204 36257 ft 480 kts 45°
2026-05-06 18:05 52.72464 5.17189 36441 ft 480 kts 46°
2026-05-06 18:05 52.74767 5.21193 36629 ft 481 kts 46°
2026-05-06 18:05 52.77071 5.25207 36809 ft 481 kts 46°
2026-05-06 18:05 52.79368 5.29215 36994 ft 482 kts 46°
2026-05-06 18:06 52.81675 5.33246 37158 ft 482 kts 46°
2026-05-06 18:06 52.83976 5.37275 37339 ft 482 kts 46°
2026-05-06 18:06 52.86268 5.41293 37523 ft 482 kts 46°
2026-05-06 18:06 52.88573 5.45337 37689 ft 482 kts 46°
2026-05-06 18:07 52.90870 5.49375 37850 ft 483 kts 46°
2026-05-06 18:07 52.93173 5.53429 38013 ft 483 kts 46°
2026-05-06 18:07 52.95469 5.57482 38166 ft 483 kts 46°
2026-05-06 18:07 52.97775 5.61558 38306 ft 484 kts 46°
2026-05-06 18:08 53.00035 5.65694 38436 ft 484 kts 49°
2026-05-06 18:08 53.02198 5.69991 38599 ft 485 kts 50°
2026-05-06 18:08 53.06504 5.78611 38808 ft 485 kts 50°
2026-05-06 18:09 53.10817 5.87239 38935 ft 485 kts 50°
2026-05-06 18:09 53.15129 5.95882 38938 ft 486 kts 50°
2026-05-06 18:10 53.19489 6.04662 38939 ft 490 kts 50°
2026-05-06 18:10 53.23835 6.13450 38936 ft 491 kts 50°
2026-05-06 18:11 53.28159 6.22226 38925 ft 491 kts 50°
2026-05-06 18:11 53.32495 6.31057 38925 ft 491 kts 50°
2026-05-06 18:12 53.36820 6.39896 38926 ft 491 kts 50°
2026-05-06 18:12 53.41143 6.48763 38928 ft 491 kts 50°
2026-05-06 18:13 53.45460 6.57648 38931 ft 491 kts 50°
2026-05-06 18:13 53.49772 6.66556 38933 ft 492 kts 50°
2026-05-06 18:14 53.54080 6.75486 38931 ft 492 kts 50°
2026-05-06 18:14 53.58386 6.84445 38924 ft 492 kts 50°
2026-05-06 18:15 53.62713 6.93480 38924 ft 493 kts 51°
2026-05-06 18:15 53.67012 7.02488 38929 ft 492 kts 51°
2026-05-06 18:16 53.71298 7.11503 38929 ft 493 kts 51°
2026-05-06 18:16 53.75581 7.20544 38929 ft 493 kts 51°
2026-05-06 18:17 53.79811 7.29504 38929 ft 493 kts 51°
2026-05-06 18:17 53.84084 7.38590 38928 ft 493 kts 51°
2026-05-06 18:18 53.88355 7.47702 38926 ft 494 kts 51°
2026-05-06 18:18 53.92529 7.56643 38931 ft 494 kts 51°
2026-05-06 18:19 53.96788 7.65796 38929 ft 494 kts 51°
2026-05-06 18:19 54.01045 7.74981 38929 ft 494 kts 51°
2026-05-06 18:20 54.05292 7.84177 38930 ft 495 kts 51°
2026-05-06 18:20 54.09538 7.93406 38928 ft 495 kts 51°
2026-05-06 18:21 54.13775 8.02647 38925 ft 495 kts 51°
2026-05-06 18:21 54.18006 8.11910 38921 ft 495 kts 52°
2026-05-06 18:22 54.22258 8.21257 38924 ft 495 kts 52°
2026-05-06 18:22 54.26478 8.30566 38917 ft 496 kts 52°
2026-05-06 18:23 54.30695 8.39904 38916 ft 496 kts 52°
2026-05-06 18:23 54.34907 8.49266 38915 ft 496 kts 52°
2026-05-06 18:24 54.39108 8.58638 38917 ft 496 kts 52°
2026-05-06 18:24 54.43308 8.68044 38918 ft 496 kts 52°
2026-05-06 18:25 54.47528 8.77531 38915 ft 497 kts 52°
2026-05-06 18:25 54.51716 8.86983 38918 ft 497 kts 52°
2026-05-06 18:26 54.55899 8.96457 38918 ft 497 kts 52°
2026-05-06 18:26 54.60102 9.06017 38919 ft 497 kts 52°
2026-05-06 18:27 54.62187 9.10771 38779 ft 498 kts 52°
2026-05-06 18:27 54.64274 9.15540 38576 ft 495 kts 52°
2026-05-06 18:27 54.66323 9.20232 38449 ft 484 kts 52°
2026-05-06 18:27 54.68297 9.24760 38140 ft 476 kts 53°
2026-05-06 18:28 54.70280 9.29317 37530 ft 473 kts 53°
2026-05-06 18:28 54.72251 9.33853 36866 ft 472 kts 53°
2026-05-06 18:28 54.74216 9.38385 36231 ft 471 kts 53°
2026-05-06 18:28 54.76181 9.42925 35682 ft 468 kts 53°
2026-05-06 18:29 54.78154 9.47491 35187 ft 468 kts 53°
2026-05-06 18:29 54.80111 9.52030 34710 ft 470 kts 53°
2026-05-06 18:29 54.82068 9.56576 34239 ft 470 kts 53°
2026-05-06 18:29 54.84018 9.61115 33734 ft 469 kts 53°
2026-05-06 18:30 54.85336 9.64186 33362 ft 468 kts 53°
2026-05-06 18:30 54.87279 9.68724 32822 ft 469 kts 53°
2026-05-06 18:30 54.89232 9.73290 32277 ft 471 kts 53°
2026-05-06 18:30 54.91185 9.77868 31755 ft 473 kts 54°
2026-05-06 18:31 54.93148 9.82474 31240 ft 474 kts 54°
2026-05-06 18:31 54.95115 9.87102 30731 ft 476 kts 54°
2026-05-06 18:31 54.97082 9.91736 30232 ft 476 kts 54°
2026-05-06 18:31 54.98990 9.96241 29711 ft 473 kts 54°
2026-05-06 18:32 55.00989 10.00969 29119 ft 468 kts 54°
2026-05-06 18:32 55.02926 10.05560 28630 ft 463 kts 54°
2026-05-06 18:32 55.04834 10.10092 28353 ft 470 kts 54°
2026-05-06 18:32 55.06803 10.14778 28075 ft 486 kts 54°
2026-05-06 18:33 55.08810 10.19561 27794 ft 489 kts 54°
2026-05-06 18:33 55.10809 10.24334 27530 ft 486 kts 54°
2026-05-06 18:33 55.12826 10.29158 27063 ft 484 kts 54°
2026-05-06 18:33 55.14804 10.33898 26565 ft 480 kts 54°
2026-05-06 18:34 55.16787 10.38662 26051 ft 476 kts 54°
2026-05-06 18:34 55.18728 10.43331 25546 ft 473 kts 54°
2026-05-06 18:34 55.20656 10.47975 25055 ft 470 kts 54°
2026-05-06 18:34 55.22567 10.52583 24571 ft 467 kts 54°
2026-05-06 18:35 55.24455 10.57142 24101 ft 464 kts 53°
2026-05-06 18:35 55.26265 10.61793 23635 ft 461 kts 59°
2026-05-06 18:35 55.27743 10.66771 23100 ft 458 kts 66°
2026-05-06 18:35 55.28832 10.71982 22546 ft 453 kts 74°
2026-05-06 18:36 55.29849 10.77203 22009 ft 455 kts 67°
2026-05-06 18:36 55.31134 10.82371 21488 ft 460 kts 66°
2026-05-06 18:36 55.32446 10.87472 20955 ft 455 kts 65°
2026-05-06 18:36 55.33722 10.92453 20389 ft 449 kts 65°
2026-05-06 18:37 55.34981 10.97434 19817 ft 443 kts 66°
2026-05-06 18:37 55.36208 11.02345 19255 ft 440 kts 66°
2026-05-06 18:37 55.37433 11.07285 18703 ft 436 kts 66°
2026-05-06 18:37 55.38631 11.12142 18147 ft 431 kts 66°
2026-05-06 18:38 55.39832 11.17025 17494 ft 427 kts 66°
2026-05-06 18:38 55.40999 11.21779 16900 ft 421 kts 66°
2026-05-06 18:38 55.42146 11.26460 16308 ft 415 kts 66°
2026-05-06 18:38 55.43287 11.31130 15712 ft 413 kts 66°
2026-05-06 18:39 55.44414 11.35749 15135 ft 407 kts 66°
2026-05-06 18:39 55.45520 11.40293 14546 ft 402 kts 66°
2026-05-06 18:39 55.46619 11.44816 14006 ft 399 kts 66°
2026-05-06 18:40 55.48774 11.53718 12946 ft 385 kts 66°
2026-05-06 18:40 55.49813 11.58020 12423 ft 378 kts 66°
2026-05-06 18:40 55.50835 11.62260 11906 ft 372 kts 66°
2026-05-06 18:40 55.51837 11.66427 11397 ft 366 kts 66°
2026-05-06 18:41 55.52824 11.70536 10897 ft 360 kts 66°
2026-05-06 18:41 55.53793 11.74580 10407 ft 355 kts 66°
2026-05-06 18:41 55.54758 11.78617 9906 ft 350 kts 66°
2026-05-06 18:41 55.55698 11.82554 9377 ft 345 kts 66°
2026-05-06 18:42 55.56623 11.86433 8833 ft 340 kts 66°
2026-05-06 18:42 55.57531 11.90249 8442 ft 332 kts 66°
2026-05-06 18:42 55.58414 11.93967 8178 ft 324 kts 67°
2026-05-06 18:42 55.59173 11.97171 7965 ft 314 kts 67°
2026-05-06 18:43 55.59997 12.00652 7829 ft 300 kts 67°
2026-05-06 18:43 55.60779 12.03965 7658 ft 282 kts 67°
2026-05-06 18:43 55.61515 12.07084 7347 ft 269 kts 67°
2026-05-06 18:43 55.62230 12.10118 6847 ft 265 kts 67°
2026-05-06 18:44 55.62941 12.13149 6345 ft 260 kts 68°
2026-05-06 18:44 55.63571 12.16123 5854 ft 256 kts 70°
2026-05-06 18:44 55.64095 12.19063 5503 ft 246 kts 74°
2026-05-06 18:44 55.64519 12.21931 5155 ft 237 kts 76°
2026-05-06 18:45 55.64914 12.24738 4815 ft 236 kts 76°
2026-05-06 18:45 55.65310 12.27607 4451 ft 242 kts 77°
2026-05-06 18:45 55.65711 12.30510 4066 ft 245 kts 77°
2026-05-06 18:45 55.65992 12.32523 3726 ft 251 kts 77°
2026-05-06 18:46 55.66527 12.36491 3365 ft 247 kts 78°
2026-05-06 18:46 55.66905 12.39391 3238 ft 237 kts 78°
2026-05-06 18:46 55.67266 12.42178 3102 ft 227 kts 78°
2026-05-06 18:46 55.67606 12.44898 2951 ft 219 kts 79°
2026-05-06 18:47 55.67915 12.47402 2862 ft 207 kts 79°
2026-05-06 18:47 55.68206 12.49787 2859 ft 192 kts 79°
2026-05-06 18:47 55.68475 12.51949 2908 ft 170 kts 79°
2026-05-06 18:47 55.68723 12.53966 2777 ft 170 kts 80°
2026-05-06 18:48 55.68967 12.55985 2558 ft 165 kts 79°
2026-05-06 18:48 55.69211 12.57947 2330 ft 161 kts 79°
2026-05-06 18:48 55.69443 12.59879 2093 ft 161 kts 80°
2026-05-06 18:48 55.69664 12.61828 1865 ft 163 kts 81°
2026-05-06 18:49 55.69867 12.63788 1785 ft 156 kts 83°
2026-05-06 18:49 55.69845 12.65570 1703 ft 143 kts 108°
2026-05-06 18:49 55.69342 12.67066 1625 ft 138 kts 131°
2026-05-06 18:49 55.68707 12.68211 1439 ft 125 kts 135°
2026-05-06 18:50 55.68055 12.69263 1289 ft 129 kts 141°
2026-05-06 18:50 55.67317 12.70107 1100 ft 128 kts 151°
2026-05-06 18:50 55.66468 12.70656 903 ft 132 kts 164°
2026-05-06 18:50 55.65550 12.70824 802 ft 135 kts 185°
2026-05-06 18:51 55.64728 12.70074 606 ft 134 kts 213°
2026-05-06 18:51 55.64251 12.69388 473 ft 134 kts 217°
2026-05-06 18:51 55.63549 12.68304 317 ft 133 kts 218°
2026-05-06 18:51 55.62631 12.66888 89 ft 129 kts 217°
2026-05-06 18:52 55.62181 12.66190 26 ft 122 kts 217°
2026-05-06 18:52 55.61669 12.65407 22 ft 68 kts 221°
2026-05-06 18:52 55.61370 12.64947 29 ft 45 kts 217°
2026-05-06 18:52 55.61245 12.64556 24 ft 29 kts 251°
2026-05-06 18:53 55.61197 12.64292 24 ft 18 kts 252°
2026-05-06 18:53 55.61243 12.64115 23 ft 18 kts 347°
2026-05-06 18:53 55.61342 12.64186 25 ft 15 kts 28°
2026-05-06 18:53 55.61443 12.64296 25 ft 20 kts 35°
2026-05-06 18:54 55.61568 12.64445 25 ft 23 kts 32°
2026-05-06 18:54 55.61704 12.64599 23 ft 24 kts 33°
2026-05-06 18:54 55.61844 12.64758 25 ft 24 kts 33°
2026-05-06 18:54 55.61987 12.64921 26 ft 24 kts 33°
2026-05-06 18:55 55.62126 12.65084 24 ft 19 kts 34°
2026-05-06 18:55 55.62213 12.65177 25 ft 15 kts 20°
2026-05-06 18:55 55.62289 12.65242 25 ft 11 kts 63°
2026-05-06 18:55 55.62331 12.65331 23 ft 11 kts
2026-05-06 18:56 55.62411 12.65328 25 ft 12 kts 359°
2026-05-06 18:56 55.62500 12.65323 23 ft 12 kts 358°
2026-05-06 18:56 55.62576 12.65320 24 ft 9 kts 359°
2026-05-06 18:56 55.62628 12.65330 25 ft 6 kts 15°
2026-05-06 18:57 55.62649 12.65345 26 ft 0 kts 25°
2026-05-06 18:57 55.62662 12.65357 15 ft 6 kts 27°
2026-05-06 18:57 55.62700 12.65390 25 ft 2 kts 26°
2026-05-06 18:57 55.62702 12.65392 24 ft 0 kts 25°